Location: Sternwarte ZA, Rosenfeld-Brittheim
(48.2889°N, 8.6789°E)
Time: 22:11:21
(UTC+01:00)

ISS - Pass Details

Date: 02 March 2021
Orbit: 417 x 422 km, 51.6° (Epoch: 02 March)

Event Time Altitude Azimuth Distance (km) Brightness Sun altitude
Exits shadow 05:41:08 26° 300° (WNW) 867 -2.6 -14.7°
Maximum altitude 05:42:38 45° 358° (N) 583 -3.1 -14.4°
Drops below altitude 10° 05:45:53 10° 73° (ENE) 1,499 0.4 -13.9°
Sets 05:48:03 0° 80° (E) 2,364 2.0 -13.5°
